Weather Roundup
Issued by NWS

Home | Current Version | Previous Version | Graphics & Text | Print | Product List | Glossary On
Versions: 1 2 3 4 5 6 7 8 9 10 11 12 13 14 15 16 17 18 19 20 21 22 23 24 25 26 27 28 29 30 31 32 33 34 35 36 37 38 39 40 41 42 43 44 45 46 47 48 49 50
995
NZUS93 KARX 010910
HRRWXR

CURRENT HOURLY OBSERVATIONS ACROSS
MUCH OF THE UPPER MISSISSIPPI VALLEY
NATIONAL WEATHER SERVICE LA CROSSE WI
400 AM CDT FRI JUL 01 2016


...SOUTHEAST MINNESOTA...


CITY           SKY/WX    TMP DP  RH WIND       PRES   REMARKS
ROCHESTER      CLEAR     55  54  96 N9        30.12R
ROCHESTER/MAYO FAIR      56  56 100 NW5       30.11R
WINONA         CLEAR     55  54  94 N5        30.10R
AUSTIN         CLEAR     55  52  88 N3        30.10S
ALBERT LEA     CLEAR     55  54  94 N8        30.11S
DODGE CENTER   CLEAR     54  52  94 N7        30.12R
PRESTON        CLEAR     54  52  92 N5        30.10R
OWATONNA       CLEAR     55  52  88 N6        30.13R
FARIBAULT      CLEAR     55  52  88 N3        30.14R
$$

...ELSEWHERE IN MINNESOTA...


CITY           SKY/WX    TMP DP  RH WIND       PRES   REMARKS
MINNEAPOLIS    PTCLDY    54  46  74 N14       30.15R
INTNL FALLS    CLEAR     44  42  93 W5        30.18S
DULUTH         CLEAR     47  44  90 N8        30.16R
RED WING       CLEAR     55  54  94 W5        30.12R
REDWOOD FALLS  CLEAR     54  48  80 N7        30.15S
MANKATO        CLEAR     55  50  82 N10       30.13F
WORTHINGTON    CLEAR     51  48  89 N8        30.16R
FAIRMONT       CLOUDY    54  50  87 NW6       30.13R
$$

...SOUTHWEST WISCONSIN...


CITY           SKY/WX    TMP DP  RH WIND       PRES   REMARKS
LA CROSSE      CLEAR     58  54  86 N10       30.07R
PRAIRIE DU CHI PTCLDY    58  54  86 CALM      30.04R
BOSCOBEL       PTCLDY    55  53  93 CALM      30.04R
LONE ROCK      CLOUDY    59  55  87 N10       30.04R
PLATTEVILLE    CLEAR     58  57  98 N8        30.02R
FORT MC COY    PTCLDY    54  53  97 N3        30.08R
CAMP DOUGLAS   CLEAR     52  52  97 NW5       30.06R
MAUSTON-NEW LI PTSUNNY   55  54  97 NW3       30.05R
VIROQUA        FAIR      55  54  97 N9        30.06R
WIS DELLS      PTCLDY    56  53  92 N6        30.04R
$$

...ELSEWHERE IN WISCONSIN...


CITY           SKY/WX    TMP DP  RH WIND       PRES   REMARKS
MILWAUKEE      PTCLDY    61  58  90 N10       29.94R
MADISON        CLEAR     57  55  93 N8        30.00R
GREEN BAY      CLOUDY    57  54  89 N9        30.01R
EAU CLAIRE     MOCLDY    54  52  93 N7        30.10R
BLACK RVR FLS  FAIR      55  55  99 N6        30.08R
MEDFORD        CLOUDY    52  52 100 NW12      30.09R FOG
WAUSAU         CLOUDY    54  51  90 N9        30.05R
WIS RAPIDS     CLEAR     54  50  86 N7        30.06R
MARSHFIELD     PTCLDY    54  50  86 N9        30.06R
RICE LAKE      PTCLDY    51  46  83 NW3       30.16R
$$

...NORTHEAST IOWA...


CITY           SKY/WX    TMP DP  RH WIND       PRES   REMARKS
WATERLOO       PTCLDY    56  53  90 NW7       30.06R
DUBUQUE        CLEAR     58  57  97 N10       30.03R
DECORAH        CLEAR     55  54  94 N7        30.07R
MASON CITY     PTCLDY    54  51  90 N8        30.11S
CHARLES CITY   CLEAR     55  55 100 N8        30.09R
OELWEIN        CLEAR     55  54  94 N9        30.07R
$$

...ELSEWHERE IN IOWA...


CITY           SKY/WX    TMP DP  RH WIND       PRES   REMARKS
DES MOINES     CLEAR     62  54  74 NW7       30.06R
IOWA CITY      CLEAR     63  59  87 N5        30.03R
FORT DODGE     CLEAR     55  48  76 N5        30.11S
MARSHALLTOWN   CLEAR     57  56  96 N6        30.06R
CEDAR RAPIDS   CLEAR     59  59 100 N8        30.03R
$$

...NORTHERN ILLINOIS...


CITY           SKY/WX    TMP DP  RH WIND       PRES   REMARKS
CHICAGO-OHARE  MOCLDY    63  60  90 NW10      29.93R
CHICAGO-MIDWAY PTCLDY    65  59  81 NW7       29.92R
MOLINE         CLEAR     65  59  81 N5        29.99R
ROCKFORD       CLOUDY    62  60  93 N9        29.99S
PEORIA         CLEAR     65  62  90 N5        29.96R
$$

NOTE: "FAIR" INDICATES FEW OR NO CLOUDS BELOW 12,000 FEET WITH NO
SIGNIFICANT WEATHER AND/OR OBSTRUCTIONS TO VISIBILITY. WIND
SPEEDS ARE IN MILES-PER-HOUR.




USA.gov is the U.S. government's official web portal to all federal, state and local government web resources and services.